Regional Weather Roundup
Issued by NWS

Home | Current Version | Previous Version | Graphics & Text | Print | Product List | Glossary On
Versions: 1 2 3 4 5 6 7 8 9 10 11 12 13 14 15 16 17 18 19 20 21 22 23 24 25 26 27 28 29 30 31 32 33 34 35 36 37 38 39 40 41 42 43 44 45 46 47 48 49 50
000
ASUS43 KTOP 231559
RWRKS

WEATHER ROUNDUP FOR KANSAS
NATIONAL WEATHER SERVICE GOODLAND KS
1100 AM CDT THU OCT 23 2014

NOTE:  "FAIR" INDICATES FEW OR NO CLOUDS BELOW 12,000 FEET WITH NO
SIGNIFICANT WEATHER AND/OR OBSTRUCTIONS TO VISIBILITY.

KSZ001>006-013>018-027>032-041>047-231700-
NORTHWEST KANSAS

CITY           SKY/WX    TMP DP  RH WIND       PRES   REMARKS
GOODLAND       SUNNY     63  48  58 S5        30.15F
HAYS           CLOUDY    59  55  88 S3        30.13R VSB 1/2
HILL CITY      FOG       56  56 100 CALM      30.13R VSB 1/4
RUSSELL        SUNNY     66  60  81 S3        30.10R
$$

KSZ061>065-074>080-084>089-231700-
SOUTHWEST KANSAS

CITY           SKY/WX    TMP DP  RH WIND       PRES   REMARKS
DODGE CITY     CLOUDY    60  58  92 S6        30.14R FOG
ELKHART          N/A    N/A N/A N/A MISG        N/A
GARDEN CITY    CLOUDY    61  58  90 CALM      30.13R FOG
GREAT BEND     CLOUDY    63  57  82 SW7       30.12S
LIBERAL        CLOUDY    57  54  88 NE7       30.15R VSB 1/2
$$

KSZ066>073-081>083-090>101-231700-
SOUTHEAST KANSAS

CITY           SKY/WX    TMP DP  RH WIND       PRES   REMARKS
CHANUTE        CLOUDY    61  58  90 S15G22    30.14S
COFFEYVILLE    LGT RAIN  61  58  90 S13       30.16R
HUTCHINSON     CLOUDY    64  57  78 SW6       30.12R
NEWTON         CLOUDY    63  55  77 S7        30.14R
PARSONS        CLOUDY    63  58  83 S8        30.16S
WICHITA INTL   CLOUDY    65  60  84 S8        30.11R
WICHITA JABRA  CLOUDY    64  60  87 S7        30.11R
WINFIELD       CLOUDY    64  60  87 S9        30.13S
$$

KSZ007>012-019>026-033>040-048>060-102>105-231700-
NORTHEAST KANSAS

CITY           SKY/WX    TMP DP  RH WIND       PRES   REMARKS
CONCORDIA      PTSUNNY   65  60  84 SW5       30.10S
EMPORIA        CLOUDY    62  61  96 SW14      30.11S
LAWRENCE       CLOUDY    64  60  87 SW12      30.10S
MANHATTAN      CLOUDY    65  61  87 SW7       30.10R
OLATHE IND     CLOUDY    63  60  90 S13G21    30.11S
OLATHE EXE     CLOUDY    62  60  93 SW9G18    30.10S
SALINA         MOSUNNY   68  60  75 SW7       30.11R
TOPEKA BILLARD CLOUDY    65  62  90 SW10      30.09S
TOPEKA FORBES  CLOUDY    64  61  90 S9        30.10R
$$



USA.gov is the U.S. government's official web portal to all federal, state and local government web resources and services.